Weather History for South St. Paul, MN

Change the Weather History Date:

Monday, August 26, 2013

  Actual Average (KMSP) Record (KMSP)
Temperature  
Mean Temperature 89 °F 70 °F  
Max Temperature 97 °F 79 °F 97 °F (2013)
Min Temperature 81 °F 60 °F 44 °F (1964)
Degree Days  
Heating Degree Days 0 1  
Month to date heating degree days 5  
Since 1 June heating degree days 54  
Since 1 July heating degree days 10  
Cooling Degree Days 24 5  
Month to date cooling degree days 180  
Year to date cooling degree days 656  
Since 1 June cooling degree days 614  
Growing Degree Days 39 (Base 50)    
Moisture  
Dew Point 72 °F    
Average Humidity 58    
Maximum Humidity 72    
Minimum Humidity 41    
Precipitation  
Precipitation 0.00 in 0.12 in 2.04 in (2005)
Month to date precipitation 3.69  
Year to date precipitation 21.56  
Snow  
Snow 0.00 in 0.00 in 0.00 in ()
Month to date snowfall 0.0  
Since 1 June snowfall 0.0  
Since 1 July snowfall 0.0  
Snow Depth -    
Sea Level Pressure  
Sea Level Pressure 29.93 in    
Wind  
Wind Speed 8 mph (SSW)    
Max Wind Speed 16 mph    
Max Gust Speed 22 mph    
Visibility 10 miles    
Events      
T = Trace of Precipitation, MM = Missing Value Source: NWS Daily Summary

Daily Weather History Graph

Daily Weather History Graph

Search for Another Location

Airport:

Trip Planner

Search our weather history database for the weather conditions in past years. The results will help you decide how hot, cold, wet, or windy it might be!

Date:

Astronomy

Aug. 26, 2013 Rise Set
Actual Time 6:27 AM CDT 7:59 PM CDT
Civil Twilight 5:56 AM CDT 8:29 PM CDT
Nautical Twilight 5:19 AM CDT 9:06 PM CDT
Astronomical Twilight 4:39 AM CDT 9:46 PM CDT
Moon 10:52 PM CDT (8/26) 12:47 PM CDT (8/26)
Length of Visible Light 14h 33m
Length of Day
13h 31m
Waning Gibbous, 66% of the Moon is Illuminated
Aug 26
Waning Gibbous
Aug 28
Last Quarter
Sep 5
New
Sep 12
First Quarter
Sep 19
Full

Hourly Weather History & Observations

Time (CDT) Temp. Heat Index Dew Point Humidity Pressure Visibility Wind Dir Wind Speed Gust Speed Precip Events Conditions
12:12 AM 84.9 °F 91.4 °F 72.7 °F 67% 29.97 in 10.0 mi SSW 6.9 mph - N/A   Clear
12:32 AM 86.4 °F 93.0 °F 72.5 °F 63% 29.97 in 10.0 mi SW 10.4 mph 17.3 mph N/A   Clear
12:52 AM 86.4 °F 93.0 °F 72.5 °F 63% 29.97 in 10.0 mi SW 9.2 mph - N/A   Clear
1:12 AM 86.0 °F 92.6 °F 72.5 °F 64% 29.97 in 10.0 mi SW 8.1 mph - N/A   Clear
1:33 AM 85.6 °F 92.2 °F 72.7 °F 65% 29.97 in 10.0 mi SW 9.2 mph - N/A   Clear
1:52 AM 85.3 °F 91.8 °F 72.7 °F 66% 29.97 in 10.0 mi SW 8.1 mph - N/A   Clear
2:12 AM 84.9 °F 91.4 °F 72.7 °F 67% 29.97 in 10.0 mi WSW 9.2 mph - N/A   Clear
2:32 AM 84.4 °F 90.6 °F 72.9 °F 68% 29.97 in 10.0 mi WSW 9.2 mph - N/A   Clear
2:52 AM 84.2 °F 90.6 °F 72.9 °F 69% 29.97 in 10.0 mi WSW 9.2 mph - N/A   Clear
3:12 AM 84.2 °F 90.6 °F 72.9 °F 69% 29.97 in 10.0 mi WSW 9.2 mph - N/A   Clear
3:32 AM 83.8 °F 89.8 °F 72.9 °F 69% 29.96 in 10.0 mi WSW 9.2 mph - N/A   Clear
3:52 AM 83.7 °F 89.4 °F 72.7 °F 69% 29.96 in 10.0 mi SW 9.2 mph - N/A   Clear
4:13 AM 83.5 °F 89.1 °F 72.5 °F 69% 29.96 in 10.0 mi WSW 10.4 mph - N/A   Clear
4:32 AM 83.5 °F 89.1 °F 72.5 °F 69% 29.96 in 10.0 mi SW 6.9 mph - N/A   Clear
4:52 AM 83.3 °F 88.7 °F 72.1 °F 69% 29.95 in 10.0 mi SW 10.4 mph - N/A   Clear
5:12 AM 83.3 °F 88.4 °F 72.0 °F 68% 29.96 in 10.0 mi SW 8.1 mph 16.1 mph N/A   Clear
5:32 AM 83.1 °F 88.4 °F 72.0 °F 69% 29.97 in 10.0 mi WSW 5.8 mph - N/A   Scattered Clouds
5:52 AM 83.3 °F 88.4 °F 71.8 °F 68% 29.98 in 10.0 mi WSW 4.6 mph - N/A   Overcast
6:12 AM 82.9 °F 88.0 °F 71.8 °F 69% 29.98 in 10.0 mi SW 5.8 mph - N/A   Scattered Clouds
6:32 AM 82.2 °F 87.1 °F 71.8 °F 71% 29.98 in 10.0 mi WSW 5.8 mph - N/A   Clear
6:52 AM 81.7 °F 86.3 °F 71.8 °F 72% 29.99 in 10.0 mi SW 3.5 mph - N/A   Scattered Clouds
7:12 AM 81.7 °F 86.3 °F 71.8 °F 72% 30.00 in 10.0 mi Calm Calm - N/A   Clear
7:32 AM 82.0 °F 86.7 °F 71.8 °F 71% 30.00 in 10.0 mi SSW 3.5 mph - N/A   Scattered Clouds
7:53 AM 83.1 °F 88.1 °F 71.8 °F 68% 30.00 in 10.0 mi SW 6.9 mph - N/A   Scattered Clouds
8:12 AM 83.5 °F 88.5 °F 71.6 °F 67% 30.00 in 10.0 mi SSW 5.8 mph - N/A   Clear
8:32 AM 84.4 °F 89.7 °F 71.4 °F 65% 30.00 in 10.0 mi SW 6.9 mph - N/A   Scattered Clouds
8:53 AM 85.1 °F 90.4 °F 71.4 °F 63% 30.00 in 10.0 mi SSW 6.9 mph - N/A   Scattered Clouds
9:12 AM 86.0 °F 91.5 °F 71.1 °F 61% 29.99 in 10.0 mi SSW 6.9 mph - N/A   Clear
9:32 AM 86.2 °F 91.4 °F 70.7 °F 60% 29.99 in 10.0 mi SW 9.2 mph - N/A   Clear
9:52 AM 87.8 °F 93.4 °F 70.9 °F 57% 29.98 in 10.0 mi SSW 6.9 mph - N/A   Clear
10:12 AM 87.8 °F 93.0 °F 70.5 °F 56% 29.98 in 10.0 mi SSW 4.6 mph - N/A   Clear
10:33 AM 88.5 °F 93.5 °F 70.2 °F 54% 29.98 in 10.0 mi SSW 8.1 mph - N/A   Clear
10:52 AM 89.6 °F 95.2 °F 70.3 °F 53% 29.98 in 10.0 mi SSW 6.9 mph - N/A   Clear
11:12 AM 89.8 °F 95.1 °F 69.8 °F 52% 29.97 in 10.0 mi SSW 6.9 mph - N/A   Clear
11:32 AM 90.5 °F 96.0 °F 70.0 °F 51% 29.97 in 7.0 mi SSW 9.2 mph - N/A   Clear
11:52 AM 91.2 °F 97.0 °F 70.3 °F 50% 29.97 in 10.0 mi SSW 8.1 mph - N/A   Clear
12:12 PM 91.6 °F 97.2 °F 70.0 °F 49% 29.96 in 10.0 mi SW 9.2 mph - N/A   Clear
12:32 PM 92.5 °F 97.9 °F 69.8 °F 47% 29.96 in 10.0 mi South 5.8 mph - N/A   Clear
12:52 PM 92.8 °F 98.6 °F 69.8 °F 47% 29.95 in 7.0 mi SSE 6.9 mph - N/A   Clear
1:12 PM 93.9 °F 99.7 °F 69.8 °F 45% 29.95 in 7.0 mi SSW 6.9 mph - N/A   Clear
1:32 PM 94.8 °F 100.9 °F 70.0 °F 44% 29.94 in 10.0 mi SW 8.1 mph - N/A   Clear
1:52 PM 94.8 °F 100.9 °F 70.0 °F 44% 29.93 in 10.0 mi SSW 9.2 mph - N/A   Clear
2:12 PM 95.4 °F 102.0 °F 70.0 °F 44% 29.93 in 10.0 mi SW 9.2 mph - N/A   Clear
2:32 PM 95.2 °F 101.7 °F 70.0 °F 44% 29.92 in 10.0 mi SSW 12.7 mph - N/A   Clear
2:53 PM 96.1 °F 101.6 °F 68.9 °F 41% 29.91 in 10.0 mi South 10.4 mph - N/A   Clear
3:12 PM 96.6 °F 103.4 °F 70.2 °F 42% 29.90 in 10.0 mi South 12.7 mph 16.1 mph N/A   Clear
3:32 PM 96.4 °F 103.7 °F 70.5 °F 43% 29.90 in 10.0 mi SSW 12.7 mph 19.6 mph N/A   Clear
3:52 PM 96.1 °F 104.2 °F 71.8 °F 45% 29.89 in 10.0 mi South 11.5 mph - N/A   Clear
4:12 PM 96.8 °F 105.8 °F 72.0 °F 45% 29.89 in 10.0 mi SSW 10.4 mph - N/A   Clear
4:32 PM 97.2 °F 105.2 °F 71.4 °F 43% 29.89 in 10.0 mi SW 12.7 mph 18.4 mph N/A   Clear
4:52 PM 96.8 °F 105.1 °F 71.4 °F 44% 29.89 in 10.0 mi SSW 13.8 mph 20.7 mph N/A   Clear
5:13 PM 96.4 °F 104.3 °F 71.1 °F 44% 29.89 in 10.0 mi SSW 11.5 mph 16.1 mph N/A   Clear
5:32 PM 96.3 °F 103.9 °F 71.2 °F 44% 29.89 in 10.0 mi SW 12.7 mph 18.4 mph N/A   Clear
5:52 PM 95.9 °F 104.5 °F 72.1 °F 46% 29.87 in 10.0 mi SSW 12.7 mph 20.7 mph N/A   Clear
6:12 PM 95.0 °F 103.2 °F 71.8 °F 47% 29.85 in 10.0 mi SSW 16.1 mph 21.9 mph N/A   Clear
6:32 PM 94.6 °F 103.7 °F 72.5 °F 49% 29.86 in 10.0 mi SSW 15.0 mph - N/A   Clear
6:52 PM 93.6 °F 102.5 °F 72.7 °F 51% 29.87 in 10.0 mi SSW 12.7 mph - N/A   Clear
7:12 PM 92.7 °F 101.7 °F 73.2 °F 53% 29.85 in 10.0 mi SSW 15.0 mph 19.6 mph N/A   Clear
7:32 PM 92.1 °F 100.5 °F 72.9 °F 53% 29.87 in 10.0 mi SSW 9.2 mph 16.1 mph N/A   Clear
7:53 PM 91.2 °F 99.7 °F 72.9 °F 55% 29.86 in 10.0 mi South 6.9 mph - N/A   Clear
8:12 PM 90.5 °F 99.2 °F 73.4 °F 57% 29.85 in 10.0 mi SSW 8.1 mph - N/A   Clear
8:32 PM 89.8 °F 98.6 °F 73.6 °F 59% 29.85 in 10.0 mi SSW 8.1 mph - N/A   Clear
8:53 PM 89.1 °F 97.5 °F 73.6 °F 60% 29.87 in 10.0 mi South 4.6 mph - N/A   Clear
9:12 PM 88.3 °F 96.4 °F 73.6 °F 61% 29.87 in 10.0 mi SSW 4.6 mph - N/A   Clear
9:33 PM 88.0 °F 96.5 °F 73.8 °F 63% 29.87 in 10.0 mi South 4.6 mph - N/A   Clear
9:52 PM 87.4 °F 95.8 °F 73.8 °F 64% 29.87 in 10.0 mi South 6.9 mph - N/A   Clear
10:12 PM 86.9 °F 95.0 °F 73.9 °F 65% 29.86 in 10.0 mi South 4.6 mph - N/A   Clear
10:32 PM 86.2 °F 94.2 °F 73.9 °F 67% 29.87 in 10.0 mi South 5.8 mph - N/A   Clear
10:52 PM 85.8 °F 93.4 °F 73.6 °F 67% 29.86 in 10.0 mi South 5.8 mph - N/A   Clear
11:12 PM 85.3 °F 92.6 °F 73.6 °F 68% 29.86 in 10.0 mi South 4.6 mph - N/A   Clear
11:32 PM 85.1 °F 92.2 °F 73.6 °F 68% 29.86 in 10.0 mi Calm Calm - N/A   Clear
11:52 PM 84.6 °F 91.4 °F 73.6 °F 69% 29.87 in 10.0 mi SSE 3.5 mph - N/A   Clear